Погода в Шайменском

Россия / Костромская область     58°52′01″N   46°13′38″E
темп.,
°C
ветер,
м/с
пор.,
м/с
влажн.,
%
обл.,
%
осадки,
мм/ч
давл.,
гПа
погр.,
м
13 мая, чт
чт1300:00+13вюв23793 0.0 102549
03:00+12ююв23865 0.0 102552
06:00+15юв2475100 0.0 1024130
09:00+22ююв355264 0.0 1024567
12:00+25ююв47376 0.0 10232265
15:00+25ююв46358 0.0 10212399
18:00+20юв3860100 0.0 1020218
21:00+18юв3136676 0.0 1019519
14 мая, пт
пт1400:00+16юв414805 0.5 1018451
03:00+15ю399292 2.1 1018357
06:00+15ююз369355 0.1 1018329
09:00+19юз24749 0.1 1019767
12:00+23зюз3449100 0.0 10191684
15:00+23юз3545100 0.0 10182003
18:00+21ююз26605 0.1 1018350
21:00+15юз118116 0.1 101811
15 мая, сб
сб1500:00+14юв11845 0.0 101811
03:00+13вюв228676 0.0 101815
06:00+16в2778100 0.0 1017200
09:00+21юв4767100 0.0 1016599
12:00+26ю4751100 0.0 10141498
15:00+28ю511425 0.0 10121885
18:00+24ю6125060 0.0 10111253
21:00+19ююз5136351 0.1 1012629
16 мая, вс
вс1600:00+15ю3119222 0.9 1012283
03:00+15ююз312944 0.9 1012371
06:00+16ююз411895 0.0 1013613
09:00+20юз61059100 0.0 10131182
12:00+23юз6104625 0.0 10131797
15:00+23зюз594547 0.0 10132039
18:00+21юз48552 0.0 10131158
21:00+15юз27840 0.1 1014119
17 мая, пн
пн1700:00+13зюз28938 0.1 1014147
03:00+12зюз259731 0.1 1016103
06:00+15зсз23830 0.0 1017192
09:00+20з12561 0.0 1018879
12:00+23зюз224564 0.0 10181766
15:00+24зюз2343100 0.0 10171941
18:00+22зюз1159100 0.0 101714
21:00+17всв1171100 0.0 101811